Time,TemperatureF,DewpointF,PressureIn,WindDirection,WindDirectionDegrees,WindSpeedMPH,WindSpeedGustMPH,Humidity,HourlyPrecipIn,Conditions,Clouds,dailyrainin,SoftwareType,DateUTC
2013-12-17 00:00:00,26.4,15.0,30.22,WNW,295,1.0,3.0,62,0.00,,,0.00,weatherlink.com 1.10,2013-12-17 05:00:00,
2013-12-17 00:15:00,26.3,14.0,30.21,WNW,295,3.0,5.0,61,0.00,,,0.00,weatherlink.com 1.10,2013-12-17 05:15:00,
2013-12-17 00:30:00,26.7,14.0,30.21,WNW,295,0.0,5.0,58,0.00,,,0.00,weatherlink.com 1.10,2013-12-17 05:30:00,
2013-12-17 00:45:00,26.7,14.0,30.21,WNW,295,4.0,4.0,58,0.00,,,0.00,weatherlink.com 1.10,2013-12-17 05:45:00,
2013-12-17 01:00:00,26.7,13.0,30.20,WNW,295,1.0,4.0,57,0.00,,,0.00,weatherlink.com 1.10,2013-12-17 06:00:00,
2013-12-17 01:16:00,26.9,13.0,30.20,WNW,295,2.0,5.0,57,0.00,,,0.00,weatherlink.com 1.10,2013-12-17 06:16:00,
2013-12-17 01:31:00,27.0,14.0,30.20,WNW,295,3.0,6.0,58,0.00,,,0.00,weatherlink.com 1.10,2013-12-17 06:31:00,
2013-12-17 01:46:00,27.1,14.0,30.20,WNW,295,4.0,8.0,59,0.00,,,0.00,weatherlink.com 1.10,2013-12-17 06:46:00,
2013-12-17 02:01:00,27.3,15.0,30.20,WNW,296,3.0,7.0,59,0.00,,,0.00,weatherlink.com 1.10,2013-12-17 07:01:00,
2013-12-17 02:16:00,27.5,14.0,30.20,WNW,296,3.0,6.0,58,0.00,,,0.00,weatherlink.com 1.10,2013-12-17 07:16:00,
2013-12-17 02:31:00,27.8,15.0,30.20,WNW,296,4.0,6.0,58,0.00,,,0.00,weatherlink.com 1.10,2013-12-17 07:31:00,
2013-12-17 02:46:00,28.0,16.0,30.20,WNW,296,1.0,5.0,60,0.00,,,0.00,weatherlink.com 1.10,2013-12-17 07:46:00,
2013-12-17 03:01:00,28.1,16.0,30.19,WNW,296,3.0,4.0,61,0.00,,,0.00,weatherlink.com 1.10,2013-12-17 08:01:00,
2013-12-17 03:16:00,28.2,16.0,30.19,WNW,296,4.0,6.0,61,0.00,,,0.00,weatherlink.com 1.10,2013-12-17 08:16:00,
2013-12-17 03:31:00,28.1,16.0,30.18,WNW,296,2.0,5.0,61,0.00,,,0.00,weatherlink.com 1.10,2013-12-17 08:31:00,
2013-12-17 03:46:00,28.1,16.0,30.17,WNW,296,2.0,5.0,62,0.00,,,0.00,weatherlink.com 1.10,2013-12-17 08:46:00,
2013-12-17 04:01:00,28.3,17.0,30.17,WNW,296,3.0,5.0,62,0.00,,,0.00,weatherlink.com 1.10,2013-12-17 09:01:00,
2013-12-17 04:16:00,28.5,17.0,30.15,WNW,296,3.0,7.0,63,0.00,,,0.00,weatherlink.com 1.10,2013-12-17 09:16:00,
2013-12-17 04:31:00,31.1,19.0,30.15,ENE,69,0.0,10.0,62,0.00,,,0.00,weatherlink.com 1.10,2013-12-17 09:31:00,
2013-12-17 04:46:00,32.1,20.0,30.15,ESE,111,4.0,10.0,61,0.00,,,0.00,weatherlink.com 1.10,2013-12-17 09:46:00,
2013-12-17 05:01:00,32.6,21.0,30.15,East,87,5.0,13.0,62,0.00,,,0.00,weatherlink.com 1.10,2013-12-17 10:01:00,
2013-12-17 05:16:00,32.8,21.0,30.14,ESE,111,9.0,16.0,62,0.00,,,0.00,weatherlink.com 1.10,2013-12-17 10:16:00,
2013-12-17 05:31:00,33.0,21.0,30.15,ESE,109,8.0,13.0,62,0.00,,,0.00,weatherlink.com 1.10,2013-12-17 10:31:00,
2013-12-17 05:46:00,32.8,19.0,30.15,ESE,119,10.0,13.0,58,0.00,,,0.00,weatherlink.com 1.10,2013-12-17 10:46:00,
2013-12-17 06:01:00,32.6,17.0,30.15,ESE,120,9.0,11.0,54,0.00,,,0.00,weatherlink.com 1.10,2013-12-17 11:01:00,
2013-12-17 06:16:00,32.5,14.0,30.15,SE,135,7.0,10.0,47,0.00,,,0.00,weatherlink.com 1.10,2013-12-17 11:16:00,
2013-12-17 06:31:00,32.6,3.0,30.15,SE,134,10.0,10.0,29,0.00,,,0.00,weatherlink.com 1.10,2013-12-17 11:31:00,
2013-12-17 06:46:00,32.8,-17.0,30.16,ESE,117,13.0,13.0,11,0.00,,,0.00,weatherlink.com 1.10,2013-12-17 11:46:00,
2013-12-17 07:01:00,32.8,-58.0,30.16,SSE,148,2.0,11.0,1,0.00,,,0.00,weatherlink.com 1.10,2013-12-17 12:01:00,
2013-12-17 07:16:00,30.9,-24.0,30.15,SE,132,6.0,9.0,8,0.00,,,0.00,weatherlink.com 1.10,2013-12-17 12:16:00,
2013-12-17 07:31:00,33.5,-99.9,30.14,ESE,117,11.0,14.0,0,0.00,,,0.00,weatherlink.com 1.10,2013-12-17 12:31:00,
2013-12-17 07:47:00,34.3,-99.9,30.13,ESE,115,12.0,14.0,0,0.00,,,0.00,weatherlink.com 1.10,2013-12-17 12:47:00,
2013-12-17 08:02:00,35.1,-99.9,30.11,ESE,109,15.0,19.0,0,0.00,,,0.00,weatherlink.com 1.10,2013-12-17 13:02:00,
2013-12-17 08:17:00,35.6,-99.9,30.13,ESE,115,12.0,16.0,0,0.00,,,0.00,weatherlink.com 1.10,2013-12-17 13:17:00,
2013-12-17 08:32:00,36.4,-56.0,30.13,SE,132,10.0,17.0,1,0.00,,,0.00,weatherlink.com 1.10,2013-12-17 13:32:00,
2013-12-17 08:47:00,37.0,-6.0,30.11,ESE,114,19.0,20.0,16,0.00,,,0.00,weatherlink.com 1.10,2013-12-17 13:47:00,
2013-12-17 09:02:00,37.8,1.0,30.09,SE,137,12.0,23.0,21,0.02,,,0.02,weatherlink.com 1.10,2013-12-17 14:02:00,
2013-12-17 09:17:00,38.4,5.0,30.09,SE,124,15.0,23.0,25,0.03,,,0.03,weatherlink.com 1.10,2013-12-17 14:17:00,
2013-12-17 09:32:00,38.9,-99.9,30.08,ESE,117,17.0,22.0,-999,0.03,,,0.03,weatherlink.com 1.10,2013-12-17 14:32:00,
2013-12-17 09:47:00,39.6,-99.9,30.07,ESE,106,13.0,23.0,-999,0.03,,,0.03,weatherlink.com 1.10,2013-12-17 14:47:00,
2013-12-17 10:02:00,40.4,5.0,30.07,SE,128,8.0,22.0,23,0.01,,,0.03,weatherlink.com 1.10,2013-12-17 15:02:00,
2013-12-17 10:17:00,41.0,-99.9,30.07,ESE,121,14.0,22.0,-999,0.00,,,0.03,weatherlink.com 1.10,2013-12-17 15:17:00,
2013-12-17 10:32:00,41.4,-99.9,30.05,SE,125,11.0,18.0,-999,0.00,,,0.03,weatherlink.com 1.10,2013-12-17 15:32:00,
2013-12-17 10:47:00,41.8,-99.9,30.04,ESE,119,14.0,17.0,-999,0.01,,,0.04,weatherlink.com 1.10,2013-12-17 15:47:00,
2013-12-17 11:03:00,42.2,-99.9,30.02,ESE,117,19.0,19.0,-999,0.02,,,0.05,weatherlink.com 1.10,2013-12-17 16:03:00,
2013-12-17 11:18:00,-11.2,-99.9,30.00,ESE,109,11.0,18.0,-999,0.02,,,0.05,weatherlink.com 1.10,2013-12-17 16:18:00,
2013-12-17 11:33:00,-10.7,-99.9,29.98,ESE,115,15.0,16.0,-999,0.02,,,0.05,weatherlink.com 1.10,2013-12-17 16:33:00,
2013-12-17 11:48:00,-10.0,-99.9,29.96,ESE,122,15.0,18.0,-999,0.02,,,0.06,weatherlink.com 1.10,2013-12-17 16:48:00,
2013-12-17 12:03:00,-9.1,-99.9,29.94,ESE,116,13.0,19.0,-999,0.01,,,0.06,weatherlink.com 1.10,2013-12-17 17:03:00,
2013-12-17 12:18:00,-8.4,-99.9,29.93,ESE,121,11.0,16.0,-999,0.02,,,0.07,weatherlink.com 1.10,2013-12-17 17:18:00,
2013-12-17 12:33:00,-7.0,-99.9,29.93,ESE,123,7.0,10.0,-999,0.02,,,0.07,weatherlink.com 1.10,2013-12-17 17:33:00,
2013-12-17 12:48:00,-4.6,-99.9,29.91,SE,132,5.0,11.0,-999,0.01,,,0.07,weatherlink.com 1.10,2013-12-17 17:48:00,
2013-12-17 13:03:00,-2.8,-99.9,29.90,WSW,250,3.0,11.0,-999,0.01,,,0.07,weatherlink.com 1.10,2013-12-17 18:03:00,
2013-12-17 13:18:00,-1.6,-99.9,29.90,WSW,250,3.0,5.0,-999,0.00,,,0.07,weatherlink.com 1.10,2013-12-17 18:18:00,
2013-12-17 13:33:00,-1.4,-99.9,29.89,WSW,250,3.0,4.0,-999,0.00,,,0.07,weatherlink.com 1.10,2013-12-17 18:33:00,
2013-12-17 13:48:00,-0.8,-99.9,29.89,WSW,250,6.0,7.0,-999,0.00,,,0.07,weatherlink.com 1.10,2013-12-17 18:48:00,
2013-12-17 14:03:00,-0.4,-99.9,29.89,WSW,250,7.0,8.0,-999,0.00,,,0.07,weatherlink.com 1.10,2013-12-17 19:03:00,
2013-12-17 14:18:00,1.1,-99.9,29.89,WSW,250,5.0,8.0,-999,0.00,,,0.07,weatherlink.com 1.10,2013-12-17 19:18:00,
2013-12-17 14:34:00,1.8,-99.9,29.89,West,261,5.0,8.0,-999,0.00,,,0.07,weatherlink.com 1.10,2013-12-17 19:34:00,
2013-12-17 14:49:00,2.6,-99.9,29.90,West,261,6.0,8.0,-999,0.00,,,0.07,weatherlink.com 1.10,2013-12-17 19:49:00,
2013-12-17 15:04:00,3.0,-99.9,29.90,WNW,284,6.0,9.0,-999,0.00,,,0.07,weatherlink.com 1.10,2013-12-17 20:04:00,
2013-12-17 15:19:00,3.5,-99.9,29.91,WNW,284,6.0,10.0,-999,0.00,,,0.07,weatherlink.com 1.10,2013-12-17 20:19:00,
2013-12-17 15:34:00,4.3,-99.9,29.92,WNW,287,12.0,12.0,-999,0.01,,,0.08,weatherlink.com 1.10,2013-12-17 20:34:00,
2013-12-17 15:49:00,3.5,-99.9,29.92,West,281,9.0,14.0,-999,0.01,,,0.08,weatherlink.com 1.10,2013-12-17 20:49:00,
2013-12-17 16:04:00,3.5,-99.9,29.92,WNW,288,6.0,11.0,-999,0.01,,,0.08,weatherlink.com 1.10,2013-12-17 21:04:00,
2013-12-17 16:19:00,3.4,-99.9,29.92,WNW,292,8.0,10.0,-999,0.01,,,0.08,weatherlink.com 1.10,2013-12-17 21:19:00,
2013-12-17 16:34:00,38.5,-99.9,29.92,WNW,292,5.0,8.0,0,0.01,,,0.09,weatherlink.com 1.10,2013-12-17 21:34:00,
2013-12-17 16:49:00,37.9,-99.9,29.92,WNW,292,5.0,10.0,0,0.01,,,0.09,weatherlink.com 1.10,2013-12-17 21:49:00,
2013-12-17 17:04:00,37.5,-99.9,29.92,WNW,288,5.0,8.0,0,0.01,,,0.09,weatherlink.com 1.10,2013-12-17 22:04:00,
2013-12-17 17:19:00,37.3,-99.9,29.92,WNW,288,3.0,5.0,0,0.01,,,0.09,weatherlink.com 1.10,2013-12-17 22:19:00,
2013-12-17 17:34:00,37.1,-99.9,29.93,NW,308,6.0,10.0,0,0.00,,,0.09,weatherlink.com 1.10,2013-12-17 22:34:00,
2013-12-17 17:49:00,36.3,-99.9,29.93,NW,323,8.0,12.0,0,0.00,,,0.09,weatherlink.com 1.10,2013-12-17 22:49:00,
2013-12-17 18:05:00,35.5,-99.9,29.93,NW,317,8.0,15.0,0,0.00,,,0.09,weatherlink.com 1.10,2013-12-17 23:05:00,
2013-12-17 18:20:00,35.1,-99.9,29.93,NNW,331,11.0,13.0,0,0.00,,,0.09,weatherlink.com 1.10,2013-12-17 23:20:00,
2013-12-17 18:35:00,34.1,-99.9,29.94,NW,311,6.0,15.0,0,0.00,,,0.09,weatherlink.com 1.10,2013-12-17 23:35:00,
2013-12-17 18:50:00,33.8,-99.9,29.95,NW,312,8.0,12.0,0,0.00,,,0.09,weatherlink.com 1.10,2013-12-17 23:50:00,
2013-12-17 19:05:00,33.5,-99.9,29.94,NW,313,9.0,12.0,0,0.00,,,0.09,weatherlink.com 1.10,2013-12-18 00:05:00,
2013-12-17 19:20:00,33.5,-99.9,29.95,NW,313,5.0,10.0,0,0.00,,,0.09,weatherlink.com 1.10,2013-12-18 00:20:00,
2013-12-17 19:35:00,33.0,-99.9,29.95,NNW,327,7.0,13.0,0,0.00,,,0.09,weatherlink.com 1.10,2013-12-18 00:35:00,
2013-12-17 19:50:00,32.8,-99.9,29.95,NNW,329,7.0,12.0,0,0.00,,,0.09,weatherlink.com 1.10,2013-12-18 00:50:00,
2013-12-17 20:05:00,32.6,-99.9,29.95,NNW,335,5.0,12.0,0,0.00,,,0.09,weatherlink.com 1.10,2013-12-18 01:05:00,
2013-12-17 20:20:00,32.2,-99.9,29.94,NNW,332,8.0,12.0,0,0.00,,,0.09,weatherlink.com 1.10,2013-12-18 01:20:00,
2013-12-17 20:35:00,32.1,-99.9,29.93,NNW,333,7.0,9.0,0,0.00,,,0.09,weatherlink.com 1.10,2013-12-18 01:35:00,
2013-12-17 20:50:00,31.7,-99.9,29.94,North,349,5.0,10.0,0,0.00,,,0.09,weatherlink.com 1.10,2013-12-18 01:50:00,
2013-12-17 21:05:00,31.5,-99.9,29.95,NNW,341,7.0,9.0,0,0.00,,,0.09,weatherlink.com 1.10,2013-12-18 02:05:00,
2013-12-17 21:20:00,31.3,-99.9,29.93,NNW,340,4.0,9.0,0,0.00,,,0.09,weatherlink.com 1.10,2013-12-18 02:20:00,
2013-12-17 21:36:00,31.0,-99.9,29.94,NNW,338,8.0,10.0,0,0.00,,,0.09,weatherlink.com 1.10,2013-12-18 02:36:00,
2013-12-17 21:51:00,31.0,-99.9,29.94,NNW,328,5.0,8.0,0,0.00,,,0.09,weatherlink.com 1.10,2013-12-18 02:51:00,
2013-12-17 22:06:00,30.9,-99.9,29.95,NNW,328,4.0,6.0,0,0.00,,,0.09,weatherlink.com 1.10,2013-12-18 03:06:00,
2013-12-17 22:21:00,30.8,-99.9,29.93,NNW,328,4.0,8.0,0,0.00,,,0.09,weatherlink.com 1.10,2013-12-18 03:21:00,
2013-12-17 22:36:00,31.0,-99.9,29.93,NNW,328,4.0,8.0,0,0.00,,,0.09,weatherlink.com 1.10,2013-12-18 03:36:00,
2013-12-17 22:51:00,30.6,-99.9,29.93,NNW,327,5.0,8.0,0,0.00,,,0.09,weatherlink.com 1.10,2013-12-18 03:51:00,
2013-12-17 23:06:00,30.2,-99.9,29.91,NW,325,2.0,10.0,0,0.00,,,0.09,weatherlink.com 1.10,2013-12-18 04:06:00,
2013-12-17 23:21:00,29.7,-99.9,29.91,NW,325,8.0,11.0,0,0.00,,,0.09,weatherlink.com 1.10,2013-12-18 04:21:00,
2013-12-17 23:36:00,29.4,-99.9,29.92,NW,314,6.0,10.0,0,0.00,,,0.09,weatherlink.com 1.10,2013-12-18 04:36:00,
2013-12-17 23:51:00,29.2,-99.9,29.91,NW,314,5.0,11.0,0,0.00,,,0.09,weatherlink.com 1.10,2013-12-18 04:51:00,